This demonstration page uses our WeatherBlox Daily Observations layout. Learn more.

Left ArrowRight Arrow

39.29038, -76.61219

Hourly Observations for June 29, 2020

Temp ( °F °C ) Dew Point ( °F °C ) Humidity (%) Winds ( mph kmh ) Pressure ( in mb ) Visibility ( mi km ) Precip ( " mm )
12:54 am 00:54 Partly Cloudy 75 23.9 69 20.6 82 82 WSW 3 6 29.76 1008 10 16 0.00 0.00
1:54 am 01:54 Partly Cloudy 75 23.9 69 20.6 82 82 W 3 6 29.76 1008 10 16 0.00 0.00
2:54 am 02:54 Partly Cloudy 74 23.3 67 19.4 79 79 W 3 6 29.76 1008 10 16 0.00 0.00
3:54 am 03:54 Partly Cloudy 75 23.9 64 17.8 69 69 NW 6 9 29.76 1008 10 16 0.00 0.00
4:54 am 04:54 Mostly Clear 73 22.8 64 17.8 74 74 NW 6 9 29.78 1008 10 16 0.00 0.00
5:54 am 05:54 Partly Cloudy 72 22.2 64 17.8 76 76 NW 5 7 29.80 1009 10 16 0.00 0.00
6:54 am 06:54 Mostly Sunny 74 23.3 64 17.8 71 71 WNW 5 7 29.83 1010 10 16 0.00 0.00
7:54 am 07:54 Mostly Sunny 78 25.6 66 18.9 67 67 NNW 7 11 29.85 1011 10 16 0.00 0.00
8:54 am 08:54 Mostly Sunny 81 27.2 64 17.8 57 57 NNW 10 17 29.86 1011 10 16 0.00 0.00
9:54 am 09:54 Mostly Sunny 84 28.9 63 17.2 49 49 NNE 8 13 29.87 1012 10 16 0.00 0.00
10:54 am 10:54 Mostly Sunny 85 29.4 62 16.7 46 46 NW 14 22 29.87 1012 10 16 0.00 0.00
11:54 am 11:54 Partly Cloudy 87 30.6 65 18.3 48 48 W 12 19 29.86 1011 10 16 0.00 0.00
12:54 pm 12:54 Partly Cloudy 89 31.7 63 17.2 42 42 NW 10 17 29.85 1011 10 16 0.00 0.00
1:54 pm 13:54 Partly Cloudy 89 31.7 61 16.1 39 39 NNW 10 17 29.84 1011 10 16 0.00 0.00
2:54 pm 14:54 Partly Cloudy 90 32.2 60 15.6 37 37 N 9 15 29.85 1011 10 16 0.00 0.00
3:54 pm 15:54 Partly Cloudy 91 32.8 60 15.6 35 35 NNW 9 15 29.83 1010 10 16 0.00 0.00
4:54 pm 16:54 Partly Cloudy 91 32.8 60 15.6 35 35 WNW 9 15 29.83 1010 10 16 0.00 0.00
5:54 pm 17:54 Mostly Cloudy 90 32.2 60 15.6 37 37 WNW 9 15 29.83 1010 10 16 0.00 0.00
6:54 pm 18:54 Mostly Cloudy 89 31.7 60 15.6 38 38 VRB 5 7 29.83 1010 10 16 0.00 0.00
7:54 pm 19:54 Mostly Cloudy 87 30.6 61 16.1 42 42 VRB 5 7 29.84 1011 10 16 0.00 0.00
8:54 pm 20:54 Mostly Cloudy 83 28.3 62 16.7 49 49 Calm 29.84 1011 10 16 0.00 0.00
9:54 pm 21:54 Mostly Cloudy 78 25.6 63 17.2 60 60 W 3 6 29.86 1011 10 16 0.00 0.00
10:54 pm 22:54 Partly Cloudy 78 25.6 63 17.2 60 60 Calm 29.87 1012 10 16 0.00 0.00
11:54 pm 23:54 Partly Cloudy 74 23.3 64 17.8 71 71 W 3 6 29.87 1012 10 16 0.00 0.00

Powered by AerisWeather